[[{"header":{"parameterUnit":"m.s-1","parameterCategory":1,"la1":30.2991,"la2":30.254,"lo1":-89.0895,"lo2":-89.0444,"dy":0.0017,"dx":0.0017,"nx":28,"ny":28,"refTime":"2023-07-24T21:00:00:Z","depth":0,"parameterNumber":2,"parameterNumberName":"U-component_of_WINDS"},"data":[0,0,0,0,0,0,0,0,0,0,0,0,0,0,0,0,0,0,0,0,0,0,0,0,0,0,0,0,0,0,0,0,0,0,0,0,0,0,0,0,0,0,0,0,0,0,0,0,0,0,0,0,0,0,0,0,0,0,1.1079,1.108,0,1.1234,1.1236,1.1237,1.1289,1.1288,1.1288,1.1287,1.1448,1.1453,1.1458,0,0,0,0,0,0,0,0,0,0,0,0,0,1.0828,1.0833,1.1079,1.108,1.1082,1.1233,1.1236,1.1238,1.1289,1.1288,1.1288,1.1287,1.1446,1.1452,1.1458,0,0,0,0,0,0,0,0,0,0,0,0,0,1.0955,1.0834,1.1078,1.1126,1.1132,1.1233,1.1236,1.1238,1.1289,1.1288,1.1287,1.1286,1.1444,1.1452,1.1459,1.1524,0,0,1.1481,1.1484,0,0,0,0,0,0,0,0,1.0948,1.0965,1.1117,1.1123,1.113,1.1241,1.1206,1.1334,1.129,1.123,1.1287,1.1286,1.138,1.1393,1.1424,1.1531,1.1538,1.1482,1.1486,1.149,1.1492,0,0,0,0,0,0,0,1.0939,1.0958,1.114,1.1119,1.1127,1.1141,1.1157,1.1231,1.1309,1.1235,1.1239,1.1257,1.1383,1.1417,1.1428,1.1541,1.1482,1.1488,1.1493,1.1496,1.1709,1.171,0,0,0,0,0,0,1.0922,1.0951,1.1135,1.1145,1.1035,1.1146,1.1165,1.1206,1.1308,1.1322,1.1257,1.1258,1.1405,1.1419,1.1434,1.1517,1.1489,1.1496,1.1501,1.1708,1.1709,1.1711,0,0,0,0,0,0,1.0917,1.0938,1.1129,1.1049,1.1074,1.1151,1.1197,1.121,1.1243,1.1325,1.1339,1.1277,1.1405,1.1424,1.1501,1.1523,1.15,1.1506,1.1706,1.1708,1.171,1.1682,0,0,0,0,0,0,1.0909,1.0936,1.0961,1.1049,1.1078,1.1193,1.1199,1.1214,1.1256,1.1259,1.1347,1.1361,1.1405,1.149,1.1508,1.1533,1.1512,1.1705,1.1707,1.1709,1.1682,1.1683,1.1684,0,0,0,0,0,1.09,1.0948,1.0962,1.0984,1.1111,1.1194,1.1211,1.126,1.1257,1.1283,1.1336,1.1358,1.1517,1.1497,1.1518,1.1545,1.1703,1.1706,1.1709,1.1681,1.1683,1.1684,0,0,0,0,0,0,1.0861,1.096,1.0977,1.1054,1.1115,1.1202,1.1237,1.126,1.1324,1.1324,1.1383,1.1403,1.1476,1.1518,1.1494,1.1613,1.1612,1.1619,1.1583,1.1585,1.1587,1.1575,1.1518,0,0,0,0,0,1.0861,1.092,1.1003,1.1063,1.1093,1.1159,1.1197,1.123,1.1296,1.1322,1.138,1.1443,1.1507,1.1549,1.1613,1.1688,1.1708,1.1717,1.1718,1.1719,1.1725,1.1767,1.1772,1.172,1.172,1.172,0,0,1.0863,1.0924,1.0957,1.1057,1.1108,1.1167,1.1181,1.1243,1.1288,1.1332,1.1408,1.1452,1.1527,1.1603,1.164,1.1641,1.1743,1.1722,1.1722,1.1728,1.1771,1.1776,1.178,1.1722,1.1721,1.1721,0,0,1.0896,1.0948,1.1003,1.1054,1.1131,1.1175,1.1188,1.1271,1.1302,1.138,1.1413,1.1468,1.1577,1.1629,1.167,1.1721,1.1744,1.174,1.1747,1.1788,1.1792,1.1796,1.1815,1.1821,1.1746,1.1746,1.1746,0,1.0888,1.0978,1.1029,1.109,1.1133,1.1174,1.1231,1.1278,1.1371,1.14,1.14,1.1538,1.1591,1.168,1.1692,1.1724,1.1741,1.1731,1.1788,1.1792,1.1797,1.1815,1.1822,1.1745,1.1745,1.1745,1.1745,0,1.0965,1.1027,1.1063,1.1152,1.1199,1.1257,1.1317,1.1359,1.1387,1.1431,1.1509,1.1574,1.1651,1.1675,1.1703,1.1768,1.1766,1.1776,1.1775,1.18,1.1818,1.1825,1.1743,1.1743,1.1744,1.1744,0,0,1.0978,1.1094,1.1106,1.1147,1.1234,1.1283,1.1344,1.1419,1.1453,1.1516,1.1568,1.1659,1.1669,1.1715,1.175,1.1786,1.1822,1.1791,1.1794,1.1795,1.1897,1.1889,1.1896,1.1837,1.1839,1.184,1.189,0,1.1023,1.1132,1.1179,1.1267,1.1325,1.1364,1.1417,1.1476,1.1518,1.1574,1.1621,1.1685,1.1693,1.1721,1.1758,1.1809,1.1843,1.1807,1.1887,1.1889,1.1867,1.1905,1.1897,1.1942,1.1898,1.1899,1.19,0,1.1089,1.1152,1.1245,1.1325,1.1351,1.1397,1.1469,1.1522,1.159,1.1618,1.1669,1.1702,1.1767,1.1761,1.1851,1.1825,1.1861,1.1891,1.1894,1.1904,1.1896,1.1916,1.1957,1.1963,1.1912,1.1911,1.191,0,1.1089,1.1197,1.1267,1.13,1.1395,1.1427,1.1468,1.1535,1.1576,1.164,1.1668,1.1737,1.1776,1.183,1.1881,1.1872,1.1966,1.1965,1.1992,1.199,1.201,1.2008,1.2057,1.2032,1.2032,1.2032,1.2032,0,1.1134,1.119,1.1268,1.1311,1.1374,1.1428,1.1489,1.1533,1.1592,1.1644,1.1683,1.1731,1.1795,1.1852,1.1892,1.196,1.1978,1.2002,1.2013,1.1999,1.1996,1.2024,1.2022,1.2034,1.2034,1.2033,1.2033,0,1.1145,1.12,1.1279,1.1362,1.1384,1.1427,1.1498,1.1541,1.1585,1.165,1.1669,1.1738,1.1806,1.1862,1.1952,1.1979,1.2051,1.2062,1.2027,1.2033,1.2056,1.2053,1.2125,1.2137,1.2104,1.2104,1.2104,0,1.117,1.1214,1.1301,1.1339,1.1379,1.1439,1.1482,1.1536,1.1579,1.1659,1.1693,1.1764,1.1823,1.1931,1.1989,1.2058,1.2071,1.2092,1.2082,1.2067,1.2072,1.2068,1.2073,1.2093,1.2093,1.2093,1.2093,0,1.1209,1.1234,1.1294,1.1363,1.1412,1.147,1.1528,1.1557,1.1622,1.1668,1.1738,1.1784,1.1875,1.1945,1.2019,1.2062,1.2089,1.2095,1.2105,1.2092,1.207,1.2082,1.203,1.2094,1.2093,1.2093,1.2093,1.2093,1.1228,1.1269,1.1336,1.1402,1.1451,1.1504,1.1549,1.1598,1.1657,1.1735,1.1763,1.1835,1.1902,1.2004,1.2047,1.2104,1.2107,1.2121,1.2125,1.2128,1.2126,1.206,1.2118,1.2118,1.2118,1.2118,1.2118,0,1.1269,1.1314,1.1373,1.1453,1.1505,1.1524,1.1589,1.1631,1.1693,1.1753,1.1811,1.1891,1.1958,1.2022,1.2093,1.2126,1.214,1.2143,1.2141,1.215,1.2119,1.2104,1.213,1.213,1.213,1.213,1.213,1.213,1.1296,1.1365,1.1398,1.1492,1.1537,1.1607,1.1642,1.1692,1.174,1.1827,1.1883,1.1924,1.1985,1.2061,1.2123,1.214,1.2165,1.2165,1.2184,1.2155,1.2153,1.2151,1.2136,1.2169,1.2169,1.2211,1.2211,1.2211]},{"header":{"parameterUnit":"m.s-1","parameterCategory":1,"la1":30.2991,"la2":30.254,"lo1":-89.0895,"lo2":-89.0444,"dy":0.0017,"dx":0.0017,"nx":28,"ny":28,"refTime":"2023-07-24T21:00:00:Z","depth":0,"parameterNumber":3,"parameterNumberName":"V-component_of_WINDS"},"data":[0,0,0,0,0,0,0,0,0,0,0,0,0,0,0,0,0,0,0,0,0,0,0,0,0,0,0,0,0,0,0,0,0,0,0,0,0,0,0,0,0,0,0,0,0,0,0,0,0,0,0,0,0,0,0,0,0,0,3.2265,3.2265,0,3.2258,3.2258,3.2258,3.229,3.2291,3.2292,3.2292,3.2282,3.2281,3.228,0,0,0,0,0,0,0,0,0,0,0,0,0,3.2301,3.2301,3.2265,3.2265,3.2265,3.2258,3.2258,3.2258,3.2289,3.2291,3.2292,3.2293,3.2283,3.2281,3.228,0,0,0,0,0,0,0,0,0,0,0,0,0,3.2289,3.23,3.2265,3.228,3.2281,3.2258,3.2258,3.2258,3.2289,3.2291,3.2292,3.2293,3.2283,3.2281,3.228,3.2241,0,0,3.2274,3.2274,0,0,0,0,0,0,0,0,3.229,3.2288,3.2278,3.2279,3.228,3.2276,3.2267,3.2252,3.2289,3.2286,3.2292,3.2294,3.2279,3.2278,3.2273,3.224,3.224,3.2274,3.2273,3.2272,3.2272,0,0,0,0,0,0,0,3.229,3.2288,3.2262,3.2277,3.2279,3.2285,3.2285,3.2264,3.2275,3.2286,3.2289,3.2288,3.228,3.2275,3.2273,3.224,3.2274,3.2273,3.2272,3.2271,3.2172,3.217,0,0,0,0,0,0,3.229,3.2289,3.2262,3.2262,3.2289,3.2284,3.2283,3.2276,3.2275,3.2276,3.2286,3.2289,3.2277,3.2275,3.2273,3.2225,3.2272,3.2271,3.227,3.2173,3.2171,3.217,0,0,0,0,0,0,3.2291,3.2287,3.2263,3.2276,3.2273,3.2282,3.2273,3.2275,3.227,3.2275,3.2277,3.228,3.2278,3.2275,3.2248,3.2225,3.227,3.2269,3.2175,3.2173,3.2171,3.2131,0,0,0,0,0,0,3.2291,3.2287,3.2274,3.2275,3.2272,3.2239,3.2272,3.2274,3.2267,3.2271,3.2269,3.227,3.2279,3.2251,3.2246,3.2224,3.2267,3.2177,3.2174,3.2171,3.2134,3.2127,3.2121,0,0,0,0,0,3.2293,3.2263,3.2273,3.227,3.2256,3.2238,3.2236,3.2248,3.2266,3.2251,3.2254,3.227,3.2229,3.2248,3.2243,3.222,3.2179,3.2175,3.2172,3.2137,3.2129,3.2122,0,0,0,0,0,0,3.2258,3.2263,3.2275,3.2245,3.2241,3.2243,3.2226,3.2239,3.2229,3.2233,3.2247,3.2246,3.2215,3.2215,3.2236,3.218,3.2207,3.2202,3.2182,3.2174,3.2168,3.2168,3.2266,0,0,0,0,0,3.2247,3.2233,3.2238,3.2211,3.2209,3.2217,3.221,3.2219,3.2215,3.2213,3.2214,3.2209,3.2194,3.2184,3.2172,3.2135,3.2133,3.2116,3.211,3.2105,3.21,3.2077,3.2069,3.2158,3.2158,3.2158,0,0,3.2223,3.2225,3.2215,3.2204,3.2202,3.2185,3.2216,3.2198,3.2185,3.221,3.2184,3.2185,3.2179,3.2146,3.2132,3.2145,3.2075,3.21,3.2096,3.2094,3.2073,3.2064,3.2057,3.2155,3.2156,3.2156,0,0,3.2172,3.2173,3.2149,3.2146,3.2143,3.2149,3.2143,3.2143,3.2145,3.2119,3.2137,3.2122,3.2097,3.2092,3.2086,3.203,3.2044,3.2026,3.1992,3.197,3.1963,3.1957,3.1934,3.1926,3.2021,3.2021,3.2021,0,3.2143,3.2121,3.2135,3.2115,3.2109,3.2132,3.2106,3.2103,3.2095,3.2089,3.2104,3.2072,3.207,3.2035,3.2021,3.2017,3.2008,3.2025,3.1963,3.1957,3.1951,3.193,3.1922,3.2019,3.2019,3.2019,3.202,0,3.2084,3.2068,3.2049,3.2041,3.2032,3.201,3.2019,3.2009,3.2018,3.2022,3.1994,3.1992,3.1978,3.1971,3.1981,3.1936,3.1944,3.1961,3.1987,3.194,3.192,3.1912,3.2016,3.2016,3.2017,3.2018,0,0,3.201,3.201,3.2003,3.1998,3.1996,3.1983,3.196,3.1947,3.1936,3.193,3.191,3.1888,3.1903,3.1896,3.1904,3.1885,3.1838,3.1904,3.1904,3.189,3.1786,3.1772,3.1762,3.1848,3.1846,3.1845,3.1785,0,3.1958,3.1921,3.1933,3.1895,3.1878,3.1899,3.1879,3.1874,3.1876,3.1862,3.1864,3.1847,3.1869,3.1865,3.1847,3.1848,3.1817,3.1852,3.1826,3.1825,3.1825,3.1752,3.1738,3.1682,3.1778,3.1777,3.1776,0,3.1893,3.1884,3.1844,3.1842,3.1836,3.1818,3.1805,3.1792,3.1785,3.1788,3.178,3.1792,3.1767,3.1795,3.176,3.1783,3.1773,3.1772,3.177,3.1766,3.1797,3.1745,3.1665,3.1655,3.1764,3.1765,3.1766,0,3.184,3.1818,3.1791,3.1787,3.1785,3.1771,3.1769,3.1764,3.1755,3.1744,3.1737,3.1723,3.1715,3.1703,3.1709,3.1729,3.1672,3.1701,3.1671,3.1671,3.1657,3.1658,3.1572,3.1654,3.1654,3.1655,3.1655,0,3.178,3.1754,3.1767,3.175,3.1721,3.1734,3.1704,3.1704,3.1699,3.1681,3.1698,3.168,3.1692,3.1674,3.1679,3.1647,3.1644,3.1644,3.1645,3.1641,3.1641,3.1633,3.1637,3.1652,3.1653,3.1653,3.1654,0,3.1716,3.1724,3.1695,3.1695,3.1694,3.1672,3.1671,3.1654,3.1658,3.1634,3.1629,3.1634,3.1613,3.1619,3.1598,3.1601,3.156,3.1568,3.1562,3.1563,3.1533,3.1535,3.1438,3.1425,3.1517,3.1516,3.1516,0,3.1676,3.1657,3.1654,3.1644,3.1641,3.1624,3.1614,3.1625,3.1614,3.1604,3.1588,3.1569,3.1555,3.1521,3.1521,3.1504,3.151,3.1477,3.1507,3.1503,3.1506,3.1506,3.1503,3.147,3.1469,3.1468,3.1468,0,3.1603,3.1608,3.1594,3.1581,3.1569,3.1559,3.1551,3.154,3.1551,3.1537,3.1517,3.1506,3.1483,3.1463,3.1447,3.1443,3.1456,3.1458,3.145,3.1445,3.1442,3.144,3.1544,3.146,3.1461,3.1461,3.1462,3.1462,3.1549,3.1531,3.1527,3.151,3.1505,3.1496,3.1479,3.148,3.1464,3.1447,3.1454,3.143,3.1422,3.1402,3.1395,3.1375,3.1387,3.1376,3.1373,3.1369,3.1364,3.1446,3.1372,3.1373,3.1373,3.1373,3.1373,0,3.1475,3.1473,3.1457,3.1445,3.1431,3.1446,3.1436,3.1423,3.1402,3.1394,3.1379,3.1355,3.1335,3.1333,3.1314,3.1298,3.1303,3.1293,3.1293,3.1291,3.1356,3.1364,3.1289,3.1289,3.1289,3.1289,3.1289,3.1289,3.1435,3.1406,3.1409,3.1377,3.1374,3.1352,3.1345,3.1335,3.1329,3.1301,3.1285,3.1284,3.1278,3.1258,3.124,3.1239,3.123,3.1217,3.1218,3.1279,3.1287,3.1295,3.1302,3.1215,3.1215,3.1155,3.1155,3.1154]}]]